Tracking 25710 objects as of 6-Jul-2022
HD Live streaming from Space Station
objects crossing your sky now

FENGYUN 1C DEB

Track FENGYUN 1C DEB now!
10-day predictions


NORAD ID: 33689
Int'l Code: 1999-025DGA
Perigee: 752.0 km
Apogee: 835.1 km
Inclination: 99.6 °
Period: 100.6 minutes
Semi major axis: 7164 km
RCS: 0.0143 m2 (small)
Launch date: May 10, 1999
Source: People's Republic of China (PRC)
Launch site: Taiyaun Space Center, China (TSC)

Note: This is SATELLITE DEBRIS
aabbcc
Your satellite tracking list
Your tracking list is empty




NASA's NSSDC Master Catalog

Two Line Element Set (TLE):
1 33689U 99025DGA 22186.38143991  .00000873  00000-0  34110-3 0  9991
2 33689  99.5678  41.2274 0058014 179.4786 356.1023 14.31594707514848
Source of the keplerian elements: AFSPC